Hermosillo, Mexico

10:05 AM MST on February 11, 2016 (GMT -0700)
Gen Ignacio Pesqueira Garcia

Weather History for MMHO - January, 2013

Change the Weather History Date:

Saturday, January 5, 2013

  Actual Average Record
Temperature  
Mean Temperature 60 °F -  
Max Temperature 77 °F 75 °F 93 °F (2006)
Min Temperature 44 °F 45 °F 33 °F (2000)
Degree Days  
Heating Degree Days 4    
Growing Degree Days 10 (Base 50)    
Moisture  
Dew Point 34 °F    
Average Humidity 46    
Maximum Humidity 75    
Minimum Humidity 17    
Precipitation  
Precipitation 0.00 in - - ()
Sea Level Pressure  
Sea Level Pressure 30.16 in    
Wind  
Wind Speed 1 mph ()    
Max Wind Speed 8 mph    
Max Gust Speed -    
Visibility 9.8 miles    
Events      
Averages and records for this station are not official NWS values.
T = Trace of Precipitation, MM = Missing Value Source: Averaged Metar Reports

Daily Weather History Graph

Daily Weather History Graph

Search for Another Location

Airport or City:

Trip Planner

Search our weather history database for the weather conditions in past years. The results will help you decide how hot, cold, wet, or windy it might be!

Date:

Astronomy

Jan. 05, 2013 Rise Set
Actual Time 7:18 AM MST 5:40 PM MST
Civil Twilight 6:53 AM MST 6:06 PM MST
Nautical Twilight 6:23 AM MST 6:36 PM MST
Astronomical Twilight 5:54 AM MST 7:05 PM MST
Moon 12:45 AM MST (1/5) 12:19 PM MST (1/5)
Length of Visible Light 11h 13m
Length of Day
10h 21m
Last Quarter, 43% of the Moon is Illuminated
Jan 5
Last Quarter
Jan 11
New
Jan 18
First Quarter
Jan 26
Full
Feb 3
Last Quarter

Hourly Weather History & Observations

Time (MST) Temp. Dew Point Humidity Pressure Visibility Wind Dir Wind Speed Gust Speed Precip Events Conditions
12:41 AM 50.0 °F 33.8 °F 54% 30.17 in 10.0 mi Calm Calm - N/A   Clear
1:43 AM 48.2 °F 33.8 °F 58% 30.15 in 10.0 mi Calm Calm - N/A   Clear
2:42 AM 46.4 °F 32.0 °F 57% 30.17 in 10.0 mi Calm Calm - N/A   Clear
3:42 AM 44.6 °F 33.8 °F 66% 30.18 in 10.0 mi Calm Calm - N/A   Clear
4:43 AM 46.4 °F 33.8 °F 62% 30.15 in 10.0 mi Calm Calm - N/A   Clear
5:42 AM 42.8 °F 33.8 °F 70% 30.19 in 10.0 mi Calm Calm - N/A   Clear
6:41 AM 42.8 °F 33.8 °F 70% 30.19 in 10.0 mi Calm Calm - N/A   Clear
7:40 AM 45 °F 38 °F 67% 30.22 in 7 mi NE 2.2 mph - -  
7:52 AM 39.2 °F 32.0 °F 75% 30.22 in 10.0 mi Calm Calm - N/A   Clear
8:43 AM 50.0 °F 35.6 °F 58% 30.24 in 10.0 mi Calm Calm - N/A   Clear
9:47 AM 57.2 °F 37.4 °F 48% 30.24 in 10.0 mi Calm Calm - N/A   Clear
10:35 AM 60 °F 42 °F 40% 30.23 in 7 mi NE 2.2 mph - -  
11:42 AM 68.0 °F 33.8 °F 28% 30.21 in 10.0 mi Calm Calm - N/A   Clear
12:45 PM 71.6 °F 32.0 °F 23% 30.17 in 10.0 mi Calm Calm - N/A   Clear
1:42 PM 73.4 °F 33.8 °F 23% 30.11 in 10.0 mi NNW 5.8 mph - N/A   Clear
2:45 PM 75.2 °F 28.4 °F 18% 30.11 in 10.0 mi SW 5.8 mph - N/A   Clear
3:48 PM 77.0 °F 28.4 °F 17% 30.12 in 10.0 mi SW 8.1 mph - N/A   Clear
4:42 PM 75.2 °F 28.4 °F 18% 30.10 in 10.0 mi WSW 4.6 mph - N/A   Clear
5:45 PM 69.8 °F 32.0 °F 25% 30.12 in 10.0 mi WSW 4.6 mph - N/A   Clear
6:43 PM 64.4 °F 32.0 °F 30% 30.12 in 10.0 mi WSW 5.8 mph - N/A   Clear
7:42 PM 57.2 °F 33.8 °F 41% 30.11 in 10.0 mi WSW 6.9 mph - N/A   Clear
8:40 PM 57.2 °F 35.6 °F 44% 30.13 in 10.0 mi WNW 4.6 mph - N/A   Clear
9:42 PM 53.6 °F 33.8 °F 47% 30.14 in 10.0 mi Calm Calm - N/A   Clear
10:42 PM 53.6 °F 37.4 °F 54% 30.15 in 10.0 mi Calm Calm - N/A   Clear
11:44 PM 51.8 °F 37.4 °F 58% 30.14 in 10.0 mi Calm Calm - N/A   Clear